,

(GMT )
Manston

Weather History for EGMH - December, 2011

Change the Weather History Date:

Friday, December 30, 2011

  Actual Average Record
Temperature  
Mean Temperature 42 °F -  
Max Temperature 48 °F - - ()
Min Temperature 41 °F - - ()
Degree Days  
Heating Degree Days 22    
Moisture  
Dew Point 38 °F    
Average Humidity 82    
Maximum Humidity 99    
Minimum Humidity 65    
Precipitation  
Precipitation 0.12 in - - ()
Sea Level Pressure  
Sea Level Pressure 30.05 in    
Wind  
Wind Speed 13 mph ()    
Max Wind Speed 22 mph    
Max Gust Speed -    
Visibility 7.3 miles    
Events Rain    
T = Trace of Precipitation, MM = Missing Value Source: Averaged Metar Reports

Daily Weather History Graph

Daily Weather History Graph

Search for Another Location

Airport or City:

Trip Planner

Search our weather history database for the weather conditions in past years. The results will help you decide how hot, cold, wet, or windy it might be!

Date:

Astronomy

Dec. 30, 2011 Rise Set
Actual Time 7:59 AM GMT 3:54 PM GMT
Civil Twilight 7:19 AM GMT 4:34 PM GMT
Nautical Twilight 6:36 AM GMT 5:17 PM GMT
Astronomical Twilight 5:56 AM GMT 5:57 PM GMT
Moon 10:29 AM GMT (12/30) 11:02 PM GMT (12/30)
Length of Visible Light 9h 14m
Length of Day
7h 54m
Waxing Crescent, 33% of the Moon is Illuminated
Dec 30
Waxing Crescent
Jan 1
First Quarter
Jan 9
Full
Jan 16
Last Quarter
Jan 23
New

Hourly Weather History & Observations

Time (GMT) Temp. Windchill Dew Point Humidity Pressure Visibility Wind Dir Wind Speed Gust Speed Precip Events Conditions
2:50 AM 43 °F - 35 °F 65% 30.00 in 10 mi WNW 21.9 mph - -   Partly Cloudy
5:50 AM 42 °F - 35 °F 68% 30.04 in 9 mi WNW 20.7 mph - -  
7:20 AM 41.0 °F 32.2 °F 35.6 °F 81% 30.06 in 6.2 mi West 18.4 mph - N/A   Partly Cloudy
7:50 AM 41.0 °F 32.8 °F 35.6 °F 81% 30.06 in 6.2 mi West 16.1 mph - N/A   Partly Cloudy
8:20 AM 41.0 °F 32.8 °F 35.6 °F 81% 30.06 in 6.2 mi WNW 16.1 mph - N/A   Partly Cloudy
8:50 AM 42 °F - 36 °F 70% 30.10 in 19 mi West 16.1 mph - -   Partly Cloudy
8:50 AM 41.0 °F 32.2 °F 35.6 °F 81% 30.09 in 6.2 mi West 18.4 mph - N/A   Partly Cloudy
9:20 AM 41.0 °F 31.9 °F 35.6 °F 81% 30.09 in - WNW 19.6 mph - N/A   Clear
9:50 AM 41.0 °F 32.5 °F 37.4 °F 87% 30.09 in - WNW 17.3 mph - N/A   Clear
10:20 AM 41.0 °F 32.5 °F 37.4 °F 87% 30.09 in 6.2 mi WNW 17.3 mph - N/A   Partly Cloudy
10:50 AM 42.8 °F 34.5 °F 37.4 °F 81% 30.09 in 6.2 mi WNW 18.4 mph - N/A   Partly Cloudy
11:20 AM 42.8 °F 34.8 °F 37.4 °F 81% 30.09 in 6.2 mi West 17.3 mph - N/A   Partly Cloudy
11:50 AM 43 °F - 37 °F 71% 30.11 in 12 mi West 15.0 mph - -   Overcast
11:50 AM 42.8 °F 35.8 °F 37.4 °F 81% 30.09 in 6.2 mi West 13.8 mph - N/A   Partly Cloudy
12:20 PM 42.8 °F 35.8 °F 37.4 °F 81% 30.09 in 6.2 mi West 13.8 mph - N/A   Partly Cloudy
12:50 PM 42.8 °F 35.8 °F 37.4 °F 81% 30.06 in 6.2 mi West 13.8 mph - N/A   Partly Cloudy
1:20 PM 42.8 °F 36.6 °F 37.4 °F 81% 30.06 in 6.2 mi West 11.5 mph - N/A   Partly Cloudy
1:50 PM 42.8 °F 36.6 °F 37.4 °F 81% 30.06 in 6.2 mi West 11.5 mph - N/A   Partly Cloudy
2:20 PM 42.8 °F 36.6 °F 37.4 °F 81% 30.06 in 6.2 mi West 11.5 mph - N/A   Partly Cloudy
2:50 PM 44 °F - 37 °F 69% 30.06 in 11 mi WSW 8.1 mph - -   Overcast
2:50 PM 42.8 °F 38.6 °F 37.4 °F 81% 30.06 in 6.2 mi WSW 6.9 mph - N/A   Partly Cloudy
3:20 PM 42.8 °F 39.3 °F 37.4 °F 81% 30.04 in 6.2 mi WSW 5.8 mph - N/A   Partly Cloudy
3:50 PM 42.8 °F 39.3 °F 37.4 °F 81% 30.04 in 6.2 mi WSW 5.8 mph - N/A Rain Light Rain
4:20 PM 41.0 °F 38.0 °F 39.2 °F 93% 30.04 in 6.2 mi SW 4.6 mph - N/A Rain Light Rain
4:50 PM 41.0 °F 38.0 °F 39.2 °F 93% 30.01 in 6.2 mi SW 4.6 mph - N/A Rain Light Rain
5:20 PM 41.0 °F 37.1 °F 39.2 °F 93% 30.01 in 6.2 mi SSW 5.8 mph - N/A Rain Light Rain
5:50 PM 41 °F - 40 °F 92% 30.01 in 4 mi SSW 5.8 mph - - Rain Rain
5:50 PM 41.0 °F 37.1 °F 39.2 °F 93% 30.01 in 6.2 mi SSW 5.8 mph - N/A Rain Light Rain
8:50 PM 44 °F - 44 °F 97% 29.90 in 2 mi SSW 6.9 mph - - Rain Drizzle
11:50 PM 48 °F - 48 °F 99% 29.82 in 14 mi WSW 12.7 mph - - Rain Rain